Flag for France Weather past 2 weeks in Le Mans, France

Now
50 °F

Clear.


Feels Like: 50 °F
Forecast: 51 / 67 °F
Wind: 1 mph from North

Location: Le Mans Airport

Current Time: May 28, 2015 at 4:22:07 AM

Latest Report: May 28, 2015 at 4:00 AM


Visibility: 10 mi

Pressure: 30.09 "Hg

Humidity: 94%

Dew point: 48 °F

Location of Le MansLocation

Historic Weather in Le Mans — Graph

°F

Le Mans temperature yesterday

Maximum temperature yesterday: 73 °F (at 4:30 PM)
Minimum temperature yesterday: 41 °F (at 6:30 AM)
Average temperature yesterday: 60 °F

Past Weeks' High & Low Weather Summary

 TemperatureHumidityPressure
High75 °F (May 13, 2:00 PM)100% (May 17, 7:00 AM)30.42 "Hg (May 17, 7:00 AM)
Low37 °F (May 21, 6:00 AM)33% (May 27, 6:00 PM)29.83 "Hg (May 18, 5:30 PM)
Average57 °F70%30.15 "Hg
* Reported May 13 3:00 AM — May 28 3:00 AM, Le Mans, Weather by CustomWeather, © 2015

Note: Actual official high and low records may vary slightly from our data, if they occured in-between our weather recording intervals... More about our weather records

Advertising

Le Mans weather history for previous 24 hours

 ConditionsComfort  
Time TempWeatherWind HumidityBarometerVisibility
3:00 AM
Thu, May 28
52 °FPassing clouds.2 mph82%30.09 "HgN/A
2:30 AM52 °FClear.No wind82%30.09 "Hg10 mi
2:00 AM54 °FClear.2 mph88%30.12 "Hg10 mi
1:30 AM54 °FClear.2 mph82%30.12 "Hg10 mi
1:00 AM54 °FClear.1 mph82%30.12 "Hg10 mi
12:30 AM55 °FClear.2 mph77%30.12 "Hg10 mi
12:00 AM57 °FClear.No wind72%30.15 "Hg10 mi
11:30 PM
Wed, May 27
63 °FClear.2 mph59%30.15 "Hg10 mi
11:00 PM63 °FClear.2 mph59%30.15 "Hg10 mi
10:30 PM64 °FSunny.3 mph56%30.15 "Hg10 mi
10:00 PM64 °FPassing clouds.3 mph56%30.15 "HgN/A
9:30 PM66 °FPassing clouds.5 mph49%30.15 "HgN/A
9:00 PM68 °FPassing clouds.5 mph46%30.15 "HgN/A
8:30 PM70 °FPassing clouds.5 mph40%30.15 "HgN/A
8:00 PM70 °FPassing clouds.3 mph40%30.15 "HgN/A
7:30 PM72 °FPassing clouds.5 mph38%30.15 "HgN/A
7:00 PM72 °FPassing clouds.6 mph38%30.18 "HgN/A
6:30 PM73 °FSunny.5 mph33%30.18 "Hg10 mi
6:00 PM73 °FSunny.3 mph33%30.18 "Hg10 mi
5:30 PM72 °FPassing clouds.6 mph38%30.18 "HgN/A
5:00 PM72 °FSunny.5 mph36%30.21 "Hg10 mi
4:30 PM73 °FPassing clouds.5 mph36%30.21 "HgN/A
4:00 PM72 °FSunny.5 mph38%30.21 "Hg10 mi
3:30 PM72 °FPassing clouds.6 mph38%30.24 "HgN/A
3:00 PM70 °FPassing clouds.5 mph40%30.24 "HgN/A
2:30 PM70 °FPassing clouds.3 mph40%30.24 "HgN/A
2:00 PM68 °FSunny.5 mph40%30.27 "Hg10 mi
1:30 PM66 °FPassing clouds.5 mph46%30.27 "HgN/A
1:00 PM66 °FPassing clouds.5 mph49%30.27 "HgN/A
12:30 PM66 °FSunny.5 mph49%30.27 "Hg10 mi
12:00 PM64 °FSunny.3 mph52%30.30 "Hg10 mi
11:30 AM64 °FSunny.1 mph52%30.30 "Hg10 mi
11:00 AM61 °FSunny.3 mph63%30.30 "Hg10 mi
10:30 AM59 °FSunny.2 mph68%30.30 "Hg10 mi
10:00 AM57 °FSunny.3 mph77%30.30 "Hg10 mi
9:30 AM55 °FPassing clouds.3 mph77%30.30 "Hg5 mi
9:00 AM54 °FPartly sunny.2 mph82%30.30 "Hg5 mi
8:30 AM50 °FFog.3 mph94%30.30 "Hg3 mi
8:00 AM48 °FLow clouds.1 mph87%30.30 "Hg6 mi
7:30 AM45 °FPartly sunny.No wind93%30.30 "HgN/A
7:00 AM43 °FPassing clouds.No wind93%30.30 "HgN/A
6:30 AM41 °FClear.1 mph93%30.30 "Hg10 mi
5:30 AM43 °FClear.No wind87%30.30 "Hg10 mi
4:30 AM45 °FClear.No wind87%30.30 "Hg10 mi
4:00 AM45 °FClear.No wind93%30.30 "Hg10 mi
Weather by CustomWeather, © 2015

See weather overviewHow to use our weather pages